426P/PanSTARRS (2018)

Japanese version
Home page
Updated on October 6, 2021

---------------------------------------------------------------------

* Profile

Designation 426P/2019 A7
Discovery Date January 8, 2019
Magnitude 20.4 mag
Discoverer Pan-STARRS 1 telescope (Haleakala)

* Pictures

* Orbital Elements

Epoch 2018 Jan. 2.0 TT = JDT 2458120.5                                          
T 2018 Jan. 8.33197 TT                                  Rudenko                 
q   2.6760288            (2000.0)            P               Q                  
n   0.17309838     Peri.  119.60885     +0.72375087     -0.62140237             
a   3.1886539      Node   280.52536     +0.47888658     +0.76538297             
e   0.1607654      Incl.   17.77070     +0.49684235     +0.16747541             
P   5.69                                                                        
From 98 observations 2017 Oct. 1-2021 June 13, mean residual 0".4.              

* Magnitudes Graph

        m1 = 14.0 + 5 log d + 10.0 log r

---------------------------------------------------------------------

The orbital elements are published on M.P.E.C. 2021-P78.
The magnitudes graphs are made with Comet for Windows.

---------------------------------------------------------------------

Copyright(C) Seiichi Yoshida (comet@aerith.net). All rights reserved.